Weather in Anavgay

Russia / Kamchatka Krai     56°03′16″N   158°58′08″E
temp.,
°C
wind,
m/s
gust,
m/s
humid.,
%
clouds,
%
prec.,
mm/h
press.,
hPa
HPBL,
m
28 february, sun
sun2800:00−17ese119699 0.4 101520
03:00−15ese1194100 0.0 101320
06:00−17se1193100 0.0 101220
09:00−16nw1191100 0.0 101122
12:00−11n0189100 0.0 1009186
15:00−10nnw1190100 0.3 1005341
18:00−10nw2487100 0.6 1002493
21:00−13wnw3386100 0.0 100155
1 march, mon
mon100:00−15wnw4487100 0.1 99887
03:00−15wnw4490100 0.0 99794
06:00−16wnw3389100 0.0 99754
09:00−16nw2391100 0.0 99756
12:00−13nw2391100 0.1 997298
15:00−11nnw3588100 0.4 996615
18:00−13nw3494100 0.8 997397
21:00−15nw3395100 0.5 1000127
2 march, tue
tue200:00−16nw3495100 0.8 1002162
03:00−17nw4595100 0.3 1005191
06:00−20nw4593100 0.3 1008148
09:00−21nw4591100 0.0 1012139
12:00−18nw3486100 0.0 1014359
15:00−15nw2476100 0.0 1016542
18:00−15s118699 0.0 101820
21:00−18nw119698 0.1 102320
3 march, wed
wed300:00−19nw229399 0.2 102624
03:00−21w1290100 0.1 102621
06:00−19ese1291100 0.1 102522
09:00−17se3595100 0.1 1021236
12:00−15se5795100 1.5 1014469
15:00−14se6796100 1.5 1004366
18:00−14se5796100 4.2 995285
21:00−12se4696100 6.6 986218
4 march, thu
thu400:00−9se51396100 13.8 974445
03:00−7sse5895100 6.3 971371
06:00−16w7127686 6.4 982677
09:00−17w11218034 0.0 9891492
12:00−18w12197537 0.1 9941933
15:00−17w132274100 0.1 9981992
18:00−16wsw4108297 0.1 10001024
21:00−22s128834 0.0 100022